Wind_Speed
27 27 28 28 28 29 28 28 28 23 25 26 25 22 22 23 23 11 8 19 8 23 11 11 12 14 10 4 6 4 1 6 8 6 5 14 10 12 8 17 8 8 8 25 30
29 30 30 31 31 31 31 29 29 25 25 25 22 20 20 21 17 13 27 22 18 11 18 15 8 10 4 5 5 6 5 7 11 11 11 20 21 17 8 18 8 15 18 26 24
31 32 32 32 33 33 32 31 30 28 24 25 21 20 19 15 5 8 5 4 14 14 19 12 7 5 8 3 5 6 11 9 6 2 17 16 19 11 20 9 19 23 24 20 22
31 33 34 34 34 35 34 32 31 29 24 22 20 19 16 4 4 2 4 6 10 20 14 4 2 4 5 8 6 9 14 9 7 2 12 22 16 11 18 12 23 28 28 21 19
33 34 36 36 36 37 37 36 31 28 24 21 21 18 4 1 12 12 14 12 6 22 18 7 5 5 5 4 3 9 16 15 17 14 15 17 18 21 12 23 20 22 21 21 17
32 35 37 38 38 39 38 36 32 27 26 23 19 12 1 4 8 8 8 8 9 21 15 12 7 8 5 6 5 6 15 12 9 18 12 14 13 9 18 23 23 23 22 19 18
33 35 37 39 39 39 39 35 30 29 30 24 12 2 2 17 4 4 12 10 10 17 7 23 25 2 1 7 6 5 8 10 8 8 19 17 6 16 25 25 26 22 21 18 17
34 36 39 40 39 40 38 31 34 30 21 10 3 5 8 16 18 21 13 16 18 16 19 18 24 6 4 6 8 6 2 3 3 9 13 10 9 20 24 24 23 21 19 16 15
34 36 38 40 40 41 34 32 25 17 6 2 5 4 10 14 8 10 15 10 9 21 21 17 8 9 6 2 5 2 4 4 6 10 18 5 11 20 22 22 22 20 19 16 14
33 35 38 40 39 41 31 29 20 5 9 4 2 2 8 4 8 17 11 13 6 5 4 5 3 3 2 4 7 5 4 2 4 4 3 11 14 23 22 22 22 20 18 17 16
33 36 39 40 38 32 24 16 7 5 6 9 6 6 13 10 10 13 9 5 5 3 7 3 3 6 9 5 5 5 3 3 5 5 6 12 19 23 21 19 19 18 18 17 17
33 36 39 41 38 17 22 5 7 10 12 10 17 19 33 11 8 16 2 2 4 7 3 2 7 8 7 6 7 9 6 6 7 3 5 12 7 7 15 17 22 20 19 19 17
33 37 39 40 29 7 19 14 24 31 4 8 6 6 8 15 11 14 4 3 4 6 6 7 8 9 9 10 10 9 7 4 6 2 7 7 5 2 3 4 8 18 21 18 19
33 36 39 43 6 24 10 22 25 27 4 8 5 8 6 6 4 14 14 8 5 10 6 6 11 9 15 14 9 9 7 9 8 4 5 4 5 5 3 6 3 8 16 20 19
34 37 39 30 17 9 13 25 29 4 3 4 3 2 4 9 1 4 12 6 7 7 7 9 10 13 13 18 13 9 9 9 8 5 6 1 4 6 4 7 10 11 16 20 22
36 40 41 16 10 11 18 28 7 5 5 5 4 8 7 5 3 2 4 3 4 6 5 8 4 9 13 16 13 6 5 1 3 5 3 8 7 6 6 15 17 13 18 24 22
39 39 28 9 5 11 21 6 4 3 7 9 7 9 8 7 8 6 4 8 6 5 5 2 13 5 5 8 10 5 6 2 2 1 7 10 4 7 14 14 21 19 21 25 22
41 36 15 15 7 13 11 5 2 3 4 6 7 9 6 14 8 8 7 3 3 4 1 6 7 8 5 9 8 8 10 6 7 4 6 5 6 10 24 23 19 18 17 20 21
37 28 8 4 6 9 5 3 4 4 6 8 6 7 7 14 10 12 6 4 7 2 5 5 8 6 6 7 9 4 3 10 6 2 3 4 4 6 6 21 14 19 17 22 24
28 13 10 6 5 2 5 4 3 5 5 6 6 5 7 10 10 11 5 3 12 14 14 6 5 7 11 2 6 9 6 2 3 6 5 4 3 5 6 18 21 21 19 20 24
8 4 3 6 4 5 3 6 4 5 8 6 5 4 6 6 5 6 6 6 22 16 17 4 4 16 5 6 5 1 3 2 4 6 6 2 5 7 19 22 25 22 16 11 23
6 2 5 15 3 0 2 2 7 6 6 8 6 7 4 7 5 5 4 8 17 17 10 5 1 4 9 6 4 5 7 8 6 5 2 5 7 8 13 15 15 10 13 22 21
3 3 7 2 3 3 5 4 5 7 6 4 5 5 4 4 5 4 4 15 15 16 10 8 4 5 8 5 7 3 3 4 4 5 7 6 6 2 4 8 16 14 10 8 4
3 4 4 4 1 3 5 4 6 6 3 3 3 2 4 4 2 7 10 8 17 15 20 9 3 4 5 4 4 6 13 7 7 5 6 6 5 1 3 8 6 8 11 11 9
1 3 1 4 5 8 4 5 5 5 3 3 1 2 2 3 5 5 5 9 11 9 11 6 4 2 8 10 8 10 12 13 3 10 10 8 8 9 8 9 9 9 7 8 15
2 3 4 4 4 6 6 5 5 13 3 4 4 4 1 4 6 13 5 4 5 5 8 7 4 0 4 4 6 11 11 9 9 6 4 8 5 7 7 4 8 3 10 7 5
6 6 3 4 6 3 3 6 10 7 5 6 1 3 3 5 0 5 6 5 6 6 6 5 5 4 3 9 9 4 6 4 5 6 9 8 9 4 4 3 8 6 7 8 4
Wind_Direction
7 3 358 356 353 351 349 349 349 343 342 339 337 332 329 325 316 303 246 248 240 223 203 167 170 192 206 228 206 136 84 235 256 252 186 146 136 154 109 135 165 196 146 156 162
6 3 359 356 351 348 345 343 345 341 340 339 335 335 333 329 316 254 278 272 239 222 187 183 182 178 211 223 197 160 175 252 221 203 161 155 151 142 128 153 103 109 129 153 158
3 359 358 355 352 348 343 339 337 338 339 340 337 337 333 331 307 247 343 353 195 193 195 197 235 178 220 301 214 209 226 249 271 155 151 144 145 134 141 161 154 145 155 163 162
358 355 353 352 348 345 342 337 332 331 332 336 336 338 331 341 292 189 80 21 178 198 208 243 250 186 217 211 255 255 261 218 271 166 166 154 153 149 169 172 160 156 160 159 164
355 353 351 349 346 343 340 336 329 324 325 329 329 337 346 311 249 241 267 288 182 192 196 198 209 179 219 228 262 248 271 281 282 199 178 142 160 162 164 142 153 153 160 164 165
351 349 348 346 344 340 337 331 324 321 320 321 315 336 339 260 271 308 266 214 181 177 191 190 220 202 289 252 192 276 292 292 263 177 147 129 130 106 149 146 155 162 166 173 171
348 346 345 343 341 339 334 327 322 321 313 306 296 323 245 241 197 289 300 237 211 191 171 208 224 337 96 301 282 276 311 326 198 167 138 125 91 146 154 156 160 166 171 175 172
345 344 343 341 339 338 332 326 326 318 306 292 203 161 244 269 305 286 268 244 256 220 213 209 216 226 182 277 333 348 349 321 220 170 147 107 174 151 158 157 164 168 171 177 183
343 343 340 339 338 338 330 328 337 323 339 115 133 163 267 302 270 279 237 233 223 218 224 236 176 204 255 220 358 5 247 252 321 193 156 126 135 161 166 161 165 169 172 180 189
342 341 339 338 337 340 331 335 338 62 57 46 258 11 268 269 354 327 284 222 209 243 292 190 112 171 29 127 209 205 225 327 239 175 129 126 147 168 172 166 169 175 179 184 192
342 342 340 337 336 342 346 352 15 349 4 223 222 257 289 320 330 310 333 324 170 129 202 244 137 207 226 174 231 275 275 338 295 181 102 156 153 171 175 174 172 179 184 191 196
341 342 342 336 336 346 354 13 335 313 300 255 244 249 254 296 308 294 356 75 159 207 153 255 213 214 224 247 234 250 263 271 315 53 89 149 130 138 178 186 178 184 188 192 194
341 343 344 337 339 7 341 346 352 350 294 299 238 225 228 164 216 261 140 136 238 201 180 189 224 199 222 238 242 246 213 203 211 112 66 89 0 30 163 110 202 197 192 191 191
340 343 343 341 354 336 307 345 344 342 17 278 247 258 175 135 234 220 198 156 222 202 186 223 224 205 212 236 199 245 209 226 240 138 201 173 220 255 277 290 182 240 201 197 195
338 339 340 342 294 309 316 339 333 11 352 323 319 195 148 164 165 250 169 110 204 201 143 226 174 205 219 225 217 249 191 214 210 139 121 14 104 262 286 256 246 232 214 206 201
338 334 336 336 287 290 334 326 336 49 259 325 22 331 8 297 258 336 144 113 179 227 253 212 237 194 215 232 238 220 241 292 163 115 146 210 163 245 215 226 226 239 228 209 203
335 332 327 292 252 311 321 353 57 159 329 1 341 329 335 310 30 350 161 156 178 141 240 284 250 233 205 213 247 188 96 260 334 154 210 184 178 225 226 224 223 222 211 203 204
332 334 333 260 277 305 336 48 193 291 22 348 323 316 46 17 10 14 10 344 318 119 358 185 261 213 217 181 201 199 168 161 188 173 205 217 218 238 203 220 224 215 215 201 203
334 340 333 187 260 280 63 53 225 359 338 343 349 30 343 1 358 9 14 298 23 188 185 191 245 269 224 208 156 235 143 192 179 165 96 208 283 296 212 213 195 203 197 195 200
333 329 299 154 200 124 71 255 282 345 18 26 41 39 1 347 10 8 344 356 354 10 4 285 251 222 262 267 237 169 188 129 344 180 246 260 218 232 187 198 199 218 196 200 199
339 354 288 187 199 55 155 234 291 2 46 40 19 357 32 2 316 334 315 328 17 340 341 306 220 255 139 181 227 2 185 114 134 151 181 221 268 215 195 197 200 217 203 195 200
8 357 177 332 45 86 169 283 3 354 33 39 71 48 48 2 347 333 290 344 353 359 330 309 284 276 227 224 191 151 228 176 178 259 208 162 259 288 167 174 201 237 196 200 193
340 274 346 140 41 329 314 4 3 14 48 52 37 44 29 13 344 303 335 344 347 356 4 325 337 350 342 356 16 12 332 203 148 113 207 147 259 288 316 212 184 160 224 241 199
2 349 329 32 79 34 6 349 353 28 91 123 154 49 22 339 219 291 308 312 338 337 341 321 241 151 230 242 220 289 308 308 192 140 169 213 204 275 196 145 191 164 205 239 226
66 293 305 331 339 331 339 356 355 342 12 157 207 192 131 283 315 283 328 331 334 327 353 28 245 266 275 262 267 270 285 292 250 226 183 203 195 238 214 172 180 125 114 190 237
59 33 352 293 307 341 360 10 7 342 280 259 166 241 207 218 209 286 327 30 278 324 4 349 272 119 285 271 284 273 274 276 281 209 170 150 227 250 192 251 94 84 120 88 40
355 359 93 291 333 26 344 354 340 350 315 37 136 118 298 261 208 253 207 227 260 294 337 295 344 355 308 314 324 323 300 259 285 249 173 177 211 179 55 222 104 44 73 48 124
Height
824 820 816 812 808 805 801 798 793 789 785 781 776 772 769 765 762 761 756 744 747 750 754 757 760 760 762 762 759 764 791 792 776 771 763 749 762 759 759 769 770 771 775 782 790
824 820 816 811 806 802 798 794 791 787 784 780 776 772 768 764 760 754 736 737 742 747 751 753 756 759 763 756 756 770 791 775 745 743 748 745 752 757 771 777 779 777 780 787 792
824 819 814 809 805 800 795 790 787 783 780 777 773 769 767 764 761 739 733 732 736 744 748 750 751 755 764 752 749 754 767 746 737 733 733 746 753 750 770 785 774 779 782 787 792
823 818 813 808 802 797 793 788 783 779 777 774 771 768 765 764 769 733 733 734 735 741 746 747 749 758 761 761 739 759 738 743 737 734 736 743 745 761 756 763 763 766 772 783 790
822 817 811 806 800 794 788 784 780 776 773 771 769 767 765 766 747 732 732 734 734 740 742 746 751 755 760 748 744 752 740 730 723 727 727 730 744 754 761 759 767 773 778 783 789
821 815 809 803 797 791 785 779 775 771 769 768 766 766 766 769 730 730 731 732 733 736 739 742 743 743 751 745 751 738 735 733 724 725 725 741 749 748 761 760 771 774 779 784 788
821 814 808 801 794 787 780 774 769 766 763 762 762 763 764 742 728 729 731 731 731 731 735 736 736 744 743 749 730 736 748 735 727 726 733 738 767 763 756 761 769 774 777 782 786
819 813 806 799 792 784 775 769 765 759 755 755 758 761 757 725 726 724 726 727 728 729 730 731 736 740 745 737 741 751 750 766 735 728 730 739 785 764 760 763 772 774 775 778 782
818 811 805 797 790 782 773 765 760 755 753 753 757 759 750 723 722 719 721 724 724 726 726 729 734 743 743 756 772 762 780 768 751 729 731 743 778 763 759 764 770 771 775 777 780
816 810 803 795 787 781 771 763 757 754 755 755 756 762 736 724 719 716 717 719 721 723 727 730 740 751 758 769 794 776 770 761 759 734 737 751 763 760 759 762 766 770 772 775 778
815 808 800 792 784 779 772 763 763 762 756 758 750 746 728 724 719 715 718 717 719 727 747 736 757 772 761 759 753 754 760 766 749 732 746 753 759 760 758 763 767 769 771 773 774
813 806 798 789 783 778 776 775 776 777 763 743 737 737 726 731 736 716 717 727 727 746 740 750 766 751 746 747 753 756 766 770 751 736 747 757 770 762 761 762 760 764 765 768 770
811 804 797 787 780 778 777 776 773 770 773 741 729 726 720 723 729 722 716 721 732 742 746 759 749 738 745 750 757 759 767 767 763 750 754 764 783 775 763 758 760 756 755 759 763
808 803 797 788 782 780 776 773 771 770 791 754 730 715 711 715 724 703 706 719 727 739 741 748 733 739 745 750 752 775 742 748 754 767 788 761 821 786 773 767 761 762 757 755 756
806 801 797 795 789 784 776 771 769 769 797 727 719 701 701 715 706 701 700 714 731 731 736 744 735 739 746 741 738 751 737 744 747 767 772 782 797 782 773 770 756 753 752 749 747
803 798 794 789 788 777 775 771 769 793 793 739 724 730 724 711 707 700 705 705 712 729 726 731 714 723 727 724 725 728 737 742 748 776 805 781 783 790 781 755 736 739 740 740 741
798 792 788 786 781 777 775 772 795 801 750 757 753 741 739 729 723 714 716 726 740 750 751 732 729 718 713 734 726 734 762 795 798 804 800 768 781 759 735 717 726 729 726 728 732
793 787 782 779 776 777 777 787 795 769 768 754 753 744 746 748 741 735 734 736 727 734 751 757 758 724 707 725 739 744 758 798 804 808 790 751 772 745 717 704 709 719 719 720 725
789 782 778 775 776 778 787 805 793 777 766 765 757 764 767 756 755 748 751 746 734 733 753 756 747 708 706 708 719 733 756 741 767 767 784 769 743 719 708 712 717 715 712 711 712
793 787 778 775 777 779 796 801 785 771 766 768 781 776 783 773 771 766 759 745 753 740 742 741 749 715 704 701 706 722 721 757 775 789 795 770 751 752 728 719 711 707 703 697 699
796 795 777 777 777 788 804 798 778 770 768 775 780 782 786 788 782 775 768 752 753 747 742 740 741 718 711 721 727 729 735 737 750 765 787 789 764 718 709 704 706 700 697 697 694
801 803 777 777 791 799 797 781 777 775 772 778 780 786 790 789 790 783 773 768 760 764 765 746 751 750 729 704 698 711 724 733 759 766 763 764 758 691 690 691 693 696 693 685 687
811 803 779 777 801 803 793 783 779 778 781 784 789 788 789 793 797 786 775 765 761 768 771 759 765 772 739 719 716 721 717 724 734 748 758 769 761 688 690 684 683 693 694 692 692
814 812 794 790 796 798 799 791 787 776 780 782 786 786 791 795 792 791 785 771 768 767 762 759 767 766 777 756 746 744 729 724 725 759 755 749 727 703 696 691 684 684 683 681 682
816 815 811 818 808 806 802 797 794 789 778 781 787 787 792 799 799 793 784 781 773 767 773 778 767 753 751 741 733 732 726 717 727 719 728 727 723 709 699 685 680 676 677 685 682
821 820 817 818 812 807 805 800 797 794 789 786 788 785 788 796 797 797 796 793 789 776 781 782 768 750 752 729 727 726 715 710 708 706 709 703 711 687 680 677 681 681 678 684 678
817 816 819 818 817 810 814 805 801 800 789 786 785 792 792 789 791 795 795 796 795 794 788 790 780 763 761 739 730 731 715 704 701 693 698 716 700 682 685 685 677 677 676 680 687